www.pogodaiklimat.ru

Погода и климат >> Архив погоды >> Иран >> Nehbandan


ПОГОДА в Nehbandan

  • Прогноз погоды в Nehbandan
  • Монитор погоды в Nehbandan
  • Климат города

АРХИВ ПОГОДЫ в Nehbandan

Время (UTC), дата Ветер
(напр.,м/с)
 
Видим.   Явления Облачность Т
(С)
Тd
(С)
f
(%)
Тe
(С)
Тes
(С)
Комфортность P
(гПа)
Po
(гПа)
Тmin
(С)
Tmax
(С)
R
(мм)
S
(см)
00 19.03 штиль 0 12 км ясно +10.5 -5.1 33 +11 +11 1012.8 882.9
03 19.03 штиль 0 12 км ясно +10.0 -3.3 39 +10 +11 1015.5 884.5 +8.6
06 19.03 штиль 0 8000 м пыль ясно +21.0 -2.4 21 +20 +37 опасность
простуды
1014.5 884.7
09 19.03 Ю 6 5000 м пыльный позёмок 1/0
[Ci fib]
+23.7 -4.2 15 +22 +28 комфорт 1012.8 882.9
12 19.03 Ю 8 5000 м пыльный позёмок 6/0
[Cs]
+23.3 -5.7 14 +21 +22 комфорт 1010.4 880.4
15 19.03 В 4 7000 м пыльный позёмок 9/1 1200 м
[Sc diur, vesp Cs]
+21.1 -5.2 17 +20 +20 1011.7 881.0 +24.2
18 19.03 С 3 7000 м пыль 6/1 1200 м
[Sc diur, vesp Ac As]
+19.9 -5.8 17 +20 +20 1008.8 880.5
21 19.03 С 3 10 км 3/0
[Ac trans]
+18.1 -6.9 18 +18 +18 1005.8 878.0
00 20.03 СЗ 2 10 км ясно +18.2 +2.8 36 +19 +19 1004.9 877.4
03 20.03 С 4 6000 м пыль 10/1 1200 м
[Cu hum As trans]
+17.4 +5.6 46 +17 +17 1008.0 879.6 +16.2
06 20.03 С 6 10 км 9/3 1200 м
[Cu hum As trans]
+17.0 +9.0 59 +16 +18 1006.9 878.4
09 20.03 С 3 8000 м пыль 9/3 1200 м
[Cu hum Ac As]
+22.6 +5.3 32 +23 +26 комфорт 1004.4 876.9
12 20.03 С 6 7000 м пыль 9/3 1200 м
[Cu hum As trans]
+22.2 +7.1 38 +23 +24 комфорт 1002.4 875.1
15 20.03 штиль 0 10 км в посл. час ливневой дождь 9/1 900 м
[Cb calv As op]
+16.4 +13.0 80 +16 +16 1005.3 876.6 +25.0
18 20.03 В 3 12 км {ливн. осадки} 10/5 900 м
[Cb calv As op]
+15.4 +12.8 84 +15 +15 1005.9 876.8 3
21 20.03 штиль 0 12 км 10/5 900 м
[Cb calv As op]
+15.6 +9.0 65 +15 +15 1005.0 877.0
00 21.03 штиль 0 12 км 10/5 900 м
[Cb calv As op]
+14.9 +7.8 62 +15 +15 1004.5 876.3
03 21.03 Ю 3 20 км 10/1 1200 м
[Sc diur, vesp As op]
+14.2 +8.2 67 +13 +14 1006.2 876.5 +13.7
06 21.03 СЗ 3 20 км 10/4 1200 м
[Sc diur, vesp As op]
+14.5 +10.2 75 +14 +15 1009.5 879.3
09 21.03 Ю 4 20 км 10/5 1050 м
[Sc diur, vesp As op]
+15.5 +9.1 66 +15 +16 1008.9 879.0
12 21.03 З 3 18 км 6/3 1050 м
[Cu hum Ac trans]
+18.6 +8.4 51 +19 +21 1007.1 877.9
15 21.03 Ю 2 15 км 6/1 1050 м
[Cu hum Ac trans Cs]
+16.2 +9.1 63 +16 +16 1008.7 878.6 +19.1
18 21.03 С 2 12 км ясно +14.2 +9.0 71 +14 +14 1010.4 879.8
21 21.03 С 3 12 км ясно +13.3 +9.2 76 +12 +12 1010.0 879.4
00 22.03 штиль 0 12 км ясно +10.3 +8.0 86 +10 +10 1009.9 879.3
03 22.03 штиль 0 20 км 1/0
[Ac trans]
+10.7 +8.2 85 +10 +12 1012.3 881.0 +9.0
06 22.03 С 3 20 км 3/0
[Ci fib]
+17.8 +6.4 47 +18 +28 1012.3 882.0
09 22.03 С 2 15 км 8/4 1200 м
[Cu hum Ac As]
+20.1 +2.3 31 +21 +26 комфорт 1011.5 881.5
12 22.03 С 2 20 км 4/3 1200 м
[Cu hum Ac trans]
+21.9 -1.6 21 +21 +24 комфорт 1010.8 880.5
15 22.03 С 2 15 км 3/3 1200 м
[Cu hum Ac trans]
+18.3 -1.8 25 +19 +19 1012.6 881.4 +22.4
18 22.03 штиль 0 15 км ясно +14.9 +0.7 38 +15 +15 1013.1 882.7
21 22.03 штиль 0 15 км ясно +11.0 +4.1 62 +11 +11 1013.0 882.8
00 23.03 штиль 0 15 км ясно +9.1 +3.7 69 +9 +9 1013.4 882.7
03 23.03 С 2 15 км 8/1 1200 м
[Cu hum Ac trans Ci fib]
+9.8 +3.1 63 +9 +9 1015.3 883.7 +8.3
06 23.03 Ю 3 18 км 9/1 1200 м
[Cu hum Ac As]
+18.7 +4.9 40 +19 +23 1015.1 884.7
09 23.03 Ю 6 18 км 3/3 1050 м
[Cu hum]
+22.1 +3.9 30 +22 +27 комфорт 1012.5 882.3
12 23.03 Ю 4 15 км 5/3 1050 м
[Sc diur, vesp Ac trans]
+22.0 +1.9 27 +22 +23 комфорт 1010.6 880.2
15 23.03 Ю 3 12 км 6/1 1200 м
[Sc diur, vesp Ac As]
+19.4 +0.7 29 +20 +20 1012.0 881.0 +23.5
18 23.03 штиль 0 12 км ясно +16.6 +1.9 37 +17 +17 1011.5 881.9
21 23.03 штиль 0 12 км ясно +16.8 +1.6 36 +17 +17 1009.0 880.7
00 24.03 С 2 12 км ясно +15.5 +1.4 38 +16 +16 1007.3 878.6
03 24.03 СЗ 2 15 км 5/1 1200 м
[Sc Cs]
+13.8 +1.2 42 +14 +15 1009.2 879.4 +13.8
06 24.03 С 3 15 км 4/0
[Ci fib]
+21.6 +1.1 26 +21 +31 комфорт 1008.0 879.4
09 24.03 штиль 0 15 км 10/1 1000 м
[Cu hum As trans]
+23.6 +0.9 22 +23 +30 комфорт 1006.6 878.6
12 24.03 Ю 5 7000 м пыльный позёмок 10/0
[As trans]
+22.6 +4.2 30 +23 +24 комфорт 1005.8 877.5
15 24.03 С 5 7000 м мгла 10/1 1200 м
[Cu hum As trans]
+20.0 +7.1 43 +21 +21 комфорт 1007.6 878.3 +24.2
18 24.03 ЮВ 4 7000 м пыль 4/0
[Ci fib]
+17.6 +7.3 51 +17 +17 1007.2 879.1
21 24.03 штиль 0 10 км ясно +16.3 +7.0 54 +16 +16 879.1
00 25.03 штиль 0 10 км ясно +16.3 +7.0 54 +16 +16 879.1
03 25.03 штиль 0 10 км ясно +15.1 +6.4 56 +15 +17 1009.4 880.1 +14.5
06 25.03 С 4 10 км 4/0
[Ci fib]
+20.7 +5.8 38 +22 +30 комфорт 1010.3 881.5
09 25.03 С 3 10 км 6/1 1200 м
[Cu hum Ac trans Cs]
+24.6 +2.5 24 +24 +32 комфорт 1008.0 880.0
12 25.03 СЗ 5 7000 м пыльный позёмок 9/1 1200 м
[Cu hum As trans]
+23.5 +4.8 30 +23 +24 комфорт 1007.0 878.8
15 25.03 С 3 8000 м пыль 5/1 1200 м
[Cu hum As trans]
+18.6 +6.8 46 +19 +19 1009.6 880.0 +25.1
18 25.03 С 3 10 км ясно +17.1 +7.6 54 +17 +17 1009.2 880.5
21 25.03 З 2 12 км ясно +16.8 +8.3 57 +17 +17 879.6

 

Местоположение метеостанции Nehbandan (Иран): широта 31.53 долгота 60.03 высота над уровнем моря 1211 м.

В архиве по умолчанию представлена погода в Nehbandan за последнюю неделю. Архивные данные за месяц целиком и за предыдущие месяцы, начиная с января 2011 года, Вы можете получить, выбрав интересующий диапазон дат из раскрывающегося списка и нажав кнопку "Ввод!".

Внимание! Время в таблицах - всемирное. Для получения местного времени необходимо прибавить поправку, которая в Nehbandan равна 3.5 ч.

Смотрите также архив погоды в соседних городах и на ближайших метеорологических станциях:

Погода в Zabol (Иран) (148 км)
Погода в Birjand (Иран) (168 км)
Погода в Zahedan (Иран) (243 км)
Погода в Bam (Иран) (312 км)
Погода в Kerman (Иран) (325 км)
Погода в Ferdous (Иран) (327 км)
Погода в Heart (Афганистан) (362 км)
Погода в Tabas (Иран) (371 км)
Погода в Nokkundi (Пакистан) (399 км)
Погода в Baft (Иран) (419 км)

Пояснения к столбцам:

Ветер - указаны скорость ветра в м/с - средняя за 10 мин, порывы в срок и между сроками (в фигурных скобках) и направление, откуда дует ветер: С - северный, СВ - северо-восточный, В - восточный, ЮВ - юго-восточный, Ю - южный, ЮЗ - юго-западный, З - западный, СЗ - северо-западный.
Видимость - горизонтальная дальность видимости в метрах или километрах. При видимости от 1 до 10 км при отсутствии осадков обычно наблюдается дымка, при ухудшении видимости до 1 км и менее - туман. В сухую погоду видимость может ухудшаться дымом, пылью или мглою.
Явления - указаны атмосферные явления, наблюдавшиеся в срок или в последний час перед сроком; фигурными скобками обозначены явления, наблюдавшиеся между сроками (за 1-3 часа до срока); квадратными скобками обозначены град или гололедные отложения с указанием их диаметра в мм.
Облачность - указаны через наклонную черту общая и нижняя облачность в баллах и высота нижней границы облаков в метрах; квадратными скобками обозначены формы облаков: Ci - перистые, Cs - перисто-слоистые, Cc - перисто-кучевые, Ac - высококучевые, As - высокослоистые, Sc - слоисто-кучевые, Ns - слоисто-дождевые, Cu - кучевые, Cb - кучево-дождевые. Подробнее классификацию облаков см. в Атласе облаков (PDF).
T - Температура воздуха - температура, измеренная на высоте 2 м над землей.
Td - Температура точки росы - температура, при понижении до которой содержащийся в воздухе водяной пар достигнет насыщения.
f - Относительная влажность воздуха - влажноcть воздуха, измеренная на высоте 2 м над землей.
Te - Эффективная температура - температура, которую ощущает одетый по сезону человек в тени. Характеристика душности погоды. При расчете учитывается влияние влажности воздуха и скорости ветра на теплоощущения человека.
Tes - Эффективная температура на солнце - температура, которую ощущает человек, с поправкой на солнечный нагрев. Характеристика знойности погоды. Зависит от высоты солнца над горизонтом, облачности и скорости ветра. Ночью, в пасмурную погоду, а также при ветре 12 м/с и более поправка равна нулю.
P - Атмосферное давление - приведенное к уровню моря атмосферное давление.
Po - Атмосферное давление - измеренное на уровне метеостанции атмосферное давление.
Tmin - Минимальная температура - минимум температуры воздуха на высоте 2 м над землей.
Tmax - Максимальная температура - максимум температуры воздуха на высоте 2 м над землей.
R - Количество осадков - Количество выпавших осадков, мм. При наведении курсора мыши на число - период времени, за который выпало указанное количество осадков.
S - Снежный покров - Высота снежного покрова, см. При наведении курсора мыши на число - состояние снежного покрова и степень покрытия местности в баллах.